[[{"header":{"parameterUnit":"m.s-1","parameterCategory":1,"la1":30.2991,"la2":30.254,"lo1":-89.0895,"lo2":-89.0444,"dy":0.0017,"dx":0.0017,"nx":28,"ny":28,"refTime":"2024-10-16T03:00:00:Z","depth":0,"parameterNumber":2,"parameterNumberName":"U-component_of_WINDS"},"data":[0,0,0,0,0,0,0,0,0,0,0,0,0,0,0,0,0,0,0,0,0,0,0,0,0,0,0,0,0,0,0,0,0,0,0,0,0,0,0,0,0,0,0,0,0,0,0,0,0,0,0,0,0,0,0,0,0,0,-1.9723,-1.9724,0,-1.9766,-1.9766,-1.9766,-1.9728,-1.9726,-1.9724,-1.9723,-1.9764,-1.9767,-1.9769,0,0,0,0,0,0,0,0,0,0,0,0,0,-1.9607,-1.9609,-1.9723,-1.9724,-1.9724,-1.9765,-1.9766,-1.9767,-1.9728,-1.9726,-1.9724,-1.9722,-1.9763,-1.9766,-1.9769,0,0,0,0,0,0,0,0,0,0,0,0,0,-1.9654,-1.961,-1.9723,-1.971,-1.9709,-1.9765,-1.9766,-1.9767,-1.9728,-1.9726,-1.9723,-1.9721,-1.9762,-1.9766,-1.977,-1.9841,0,0,-1.9782,-1.9783,0,0,0,0,0,0,0,0,-1.9651,-1.9658,-1.9712,-1.9711,-1.971,-1.9739,-1.974,-1.9791,-1.9729,-1.9721,-1.9723,-1.972,-1.9758,-1.9762,-1.9775,-1.9843,-1.9844,-1.9782,-1.9784,-1.9786,-1.9787,0,0,0,0,0,0,0,-1.9648,-1.9656,-1.974,-1.9712,-1.9712,-1.9701,-1.9705,-1.975,-1.9752,-1.9721,-1.9719,-1.9724,-1.9757,-1.9771,-1.9775,-1.9845,-1.9782,-1.9785,-1.9788,-1.9789,-1.9971,-1.9974,0,0,0,0,0,0,-1.9647,-1.9654,-1.9739,-1.9741,-1.9675,-1.9705,-1.971,-1.9732,-1.9751,-1.9752,-1.9726,-1.9722,-1.9766,-1.9771,-1.9777,-1.9859,-1.9786,-1.979,-1.9792,-1.9969,-1.9972,-1.9974,0,0,0,0,0,0,-1.9644,-1.9655,-1.9737,-1.9697,-1.9707,-1.971,-1.9735,-1.9734,-1.9748,-1.9755,-1.9755,-1.9741,-1.9764,-1.9771,-1.9825,-1.986,-1.9791,-1.9795,-1.9966,-1.997,-1.9973,-2.0027,0,0,0,0,0,0,-1.9641,-1.9654,-1.9682,-1.9698,-1.9709,-1.9785,-1.9737,-1.9737,-1.9755,-1.9751,-1.9768,-1.9769,-1.9763,-1.9819,-1.9829,-1.9864,-1.9798,-1.9962,-1.9967,-1.9972,-2.0022,-2.0032,-2.004,0,0,0,0,0,-1.9637,-1.9695,-1.9683,-1.9694,-1.9744,-1.9787,-1.9794,-1.9786,-1.9758,-1.9786,-1.979,-1.9769,-1.9855,-1.9825,-1.9835,-1.9873,-1.996,-1.9966,-1.9972,-2.0017,-2.003,-2.004,0,0,0,0,0,0,-1.9682,-1.9697,-1.9684,-1.9749,-1.9767,-1.9781,-1.9815,-1.9799,-1.9825,-1.982,-1.9808,-1.9812,-1.9869,-1.9876,-1.9842,-1.9941,-1.9903,-1.9911,-1.9934,-1.9946,-1.9955,-1.9952,-1.9801,0,0,0,0,0,-1.97,-1.9735,-1.9746,-1.9802,-1.9812,-1.9812,-1.9831,-1.9823,-1.9841,-1.9849,-1.9857,-1.9875,-1.9906,-1.9927,-1.9956,-2.0023,-2.0025,-2.0053,-2.0063,-2.007,-2.0077,-2.0112,-2.0124,-1.9993,-1.9993,-1.9993,0,0,-1.9736,-1.9749,-1.9772,-1.9811,-1.9825,-1.986,-1.9819,-1.9859,-1.9885,-1.9855,-1.9905,-1.9912,-1.9931,-1.9991,-2.0018,-1.9999,-2.0114,-2.0078,-2.0084,-2.0086,-2.0119,-2.0131,-2.0142,-1.9997,-1.9996,-1.9996,0,0,-1.9821,-1.9835,-1.9882,-1.9896,-1.9917,-1.9917,-1.9928,-1.9944,-1.9947,-1.9998,-1.9976,-2.0007,-2.0061,-2.0075,-2.009,-2.0179,-2.016,-2.0189,-2.0237,-2.0271,-2.0281,-2.0291,-2.0321,-2.0332,-2.0196,-2.0196,-2.0196,0,-1.9864,-1.9917,-1.9909,-1.995,-1.9967,-1.9942,-1.999,-2.0004,-2.0033,-2.0045,-2.0023,-2.009,-2.0102,-2.0164,-2.0186,-2.0199,-2.021,-2.0186,-2.0281,-2.029,-2.0298,-2.0327,-2.0339,-2.0199,-2.0199,-2.0198,-2.0198,0,-1.9968,-2.0006,-2.0041,-2.007,-2.0092,-2.0136,-2.0133,-2.0156,-2.0146,-2.0148,-2.0199,-2.0212,-2.0242,-2.0257,-2.0248,-2.0318,-2.0305,-2.0283,-2.0244,-2.0314,-2.0341,-2.0352,-2.0204,-2.0202,-2.0202,-2.0201,0,0,-2.0082,-2.0105,-2.0119,-2.0131,-2.0152,-2.018,-2.0223,-2.0253,-2.0272,-2.0293,-2.0327,-2.0374,-2.0353,-2.0369,-2.0361,-2.0391,-2.0459,-2.0364,-2.0365,-2.0381,-2.0536,-2.0552,-2.0565,-2.0447,-2.0449,-2.0451,-2.0534,0,-2.0167,-2.0241,-2.0234,-2.0304,-2.0338,-2.0314,-2.0351,-2.0367,-2.037,-2.0398,-2.0401,-2.0433,-2.0404,-2.0413,-2.0442,-2.0445,-2.049,-2.0439,-2.0478,-2.0479,-2.0473,-2.0579,-2.0597,-2.0674,-2.0544,-2.0546,-2.0547,0,-2.0275,-2.03,-2.0374,-2.0388,-2.0402,-2.0436,-2.0462,-2.049,-2.0507,-2.0507,-2.0525,-2.0512,-2.0553,-2.0514,-2.0571,-2.0536,-2.0552,-2.0556,-2.0558,-2.0561,-2.0517,-2.0584,-2.0699,-2.071,-2.0564,-2.0563,-2.0562,0,-2.035,-2.0401,-2.0452,-2.0463,-2.0482,-2.0506,-2.0514,-2.053,-2.0548,-2.0571,-2.0583,-2.061,-2.0625,-2.0646,-2.064,-2.0613,-2.0698,-2.0659,-2.0698,-2.0698,-2.0716,-2.0715,-2.0834,-2.0728,-2.0728,-2.0727,-2.0727,0,-2.0444,-2.049,-2.0485,-2.0516,-2.0566,-2.0557,-2.0607,-2.0613,-2.0626,-2.0657,-2.0638,-2.0668,-2.0659,-2.0687,-2.0683,-2.0729,-2.0737,-2.0736,-2.0735,-2.0738,-2.0738,-2.0747,-2.0741,-2.0731,-2.073,-2.0729,-2.0729,0,-2.0535,-2.0534,-2.0588,-2.0601,-2.0605,-2.0642,-2.0652,-2.0681,-2.0682,-2.0721,-2.073,-2.0731,-2.0763,-2.076,-2.0796,-2.0793,-2.0851,-2.0843,-2.0845,-2.0843,-2.0881,-2.0877,-2.101,-2.1027,-2.0911,-2.0912,-2.0913,0,-2.0595,-2.063,-2.0647,-2.0666,-2.0677,-2.0709,-2.0727,-2.0719,-2.0739,-2.0761,-2.0787,-2.0818,-2.0842,-2.0895,-2.0898,-2.0926,-2.0917,-2.0962,-2.0921,-2.0923,-2.0917,-2.0914,-2.0917,-2.097,-2.0971,-2.0972,-2.0973,0,-2.0701,-2.0699,-2.0727,-2.0754,-2.0777,-2.0798,-2.0817,-2.0834,-2.0828,-2.0851,-2.0884,-2.0903,-2.094,-2.097,-2.0996,-2.1004,-2.0987,-2.0986,-2.0996,-2.0999,-2.0999,-2.0998,-2.0866,-2.0983,-2.0982,-2.0981,-2.0981,-2.098,-2.0778,-2.0807,-2.0823,-2.0854,-2.0868,-2.0886,-2.0913,-2.0918,-2.0945,-2.0975,-2.0968,-2.1005,-2.1021,-2.1054,-2.1064,-2.1092,-2.1076,-2.1091,-2.1095,-2.1099,-2.1102,-2.0995,-2.1097,-2.1097,-2.1097,-2.1096,-2.1096,0,-2.0882,-2.0891,-2.092,-2.0947,-2.0971,-2.0954,-2.0974,-2.0995,-2.1028,-2.1045,-2.1069,-2.1106,-2.1135,-2.1141,-2.1169,-2.119,-2.1183,-2.1197,-2.1195,-2.1197,-2.1116,-2.1104,-2.1202,-2.1202,-2.1202,-2.1202,-2.1202,-2.1202,-2.0939,-2.0987,-2.0986,-2.104,-2.1049,-2.1085,-2.1098,-2.1114,-2.1127,-2.1169,-2.1194,-2.1197,-2.1209,-2.1237,-2.1263,-2.1264,-2.1274,-2.1291,-2.1289,-2.1213,-2.1203,-2.1193,-2.1181,-2.1294,-2.1294,-2.1367,-2.1368,-2.1368]},{"header":{"parameterUnit":"m.s-1","parameterCategory":1,"la1":30.2991,"la2":30.254,"lo1":-89.0895,"lo2":-89.0444,"dy":0.0017,"dx":0.0017,"nx":28,"ny":28,"refTime":"2024-10-16T03:00:00:Z","depth":0,"parameterNumber":3,"parameterNumberName":"V-component_of_WINDS"},"data":[0,0,0,0,0,0,0,0,0,0,0,0,0,0,0,0,0,0,0,0,0,0,0,0,0,0,0,0,0,0,0,0,0,0,0,0,0,0,0,0,0,0,0,0,0,0,0,0,0,0,0,0,0,0,0,0,0,0,-3.552,-3.5521,0,-3.559,-3.5591,-3.5592,-3.5579,-3.5578,-3.5576,-3.5575,-3.5641,-3.5644,-3.5647,0,0,0,0,0,0,0,0,0,0,0,0,0,-3.537,-3.5372,-3.552,-3.5521,-3.5522,-3.559,-3.5591,-3.5592,-3.5579,-3.5578,-3.5576,-3.5575,-3.564,-3.5644,-3.5647,0,0,0,0,0,0,0,0,0,0,0,0,0,-3.5437,-3.5373,-3.552,-3.5524,-3.5525,-3.559,-3.5591,-3.5592,-3.5579,-3.5578,-3.5576,-3.5574,-3.5639,-3.5644,-3.5648,-3.5712,0,0,-3.5661,-3.5663,0,0,0,0,0,0,0,0,-3.5433,-3.5442,-3.5522,-3.5524,-3.5525,-3.5574,-3.5562,-3.5632,-3.558,-3.5559,-3.5575,-3.5573,-3.562,-3.5626,-3.5643,-3.5715,-3.5718,-3.5662,-3.5664,-3.5666,-3.5667,0,0,0,0,0,0,0,-3.5428,-3.5439,-3.5548,-3.5524,-3.5525,-3.552,-3.5528,-3.5575,-3.5599,-3.556,-3.556,-3.5568,-3.562,-3.5639,-3.5644,-3.5719,-3.5662,-3.5665,-3.5668,-3.567,-3.5845,-3.5847,0,0,0,0,0,0,-3.5423,-3.5435,-3.5546,-3.555,-3.5474,-3.5524,-3.5533,-3.556,-3.5598,-3.5602,-3.557,-3.5567,-3.5632,-3.5639,-3.5647,-3.5722,-3.5666,-3.567,-3.5673,-3.5843,-3.5845,-3.5847,0,0,0,0,0,0,-3.542,-3.5433,-3.5543,-3.5493,-3.5506,-3.5529,-3.556,-3.5562,-3.5581,-3.5605,-3.5609,-3.5585,-3.5631,-3.5641,-3.5696,-3.5725,-3.5672,-3.5676,-3.584,-3.5843,-3.5846,-3.5876,0,0,0,0,0,0,-3.5416,-3.5432,-3.5458,-3.5493,-3.5509,-3.5592,-3.5562,-3.5565,-3.5589,-3.5587,-3.562,-3.5624,-3.563,-3.5689,-3.57,-3.573,-3.568,-3.5838,-3.5842,-3.5845,-3.5872,-3.5879,-3.5885,0,0,0,0,0,-3.541,-3.5463,-3.546,-3.5473,-3.5542,-3.5594,-3.5603,-3.5611,-3.5592,-3.5617,-3.5632,-3.5623,-3.572,-3.5695,-3.5707,-3.5738,-3.5836,-3.5841,-3.5845,-3.5869,-3.5878,-3.5885,0,0,0,0,0,0,-3.5428,-3.5467,-3.5464,-3.553,-3.5559,-3.5592,-3.5624,-3.562,-3.5654,-3.565,-3.5656,-3.5664,-3.572,-3.5735,-3.5706,-3.5801,-3.5775,-3.5782,-3.5789,-3.5798,-3.5804,-3.5798,-3.5683,0,0,0,0,0,-3.5441,-3.5481,-3.5513,-3.5567,-3.5582,-3.5601,-3.5624,-3.5627,-3.5657,-3.5669,-3.5688,-3.5716,-3.5752,-3.5776,-3.5811,-3.5875,-3.5881,-3.5902,-3.5909,-3.5914,-3.592,-3.5952,-3.5962,-3.5862,-3.5862,-3.5862,0,0,-3.5465,-3.5491,-3.5516,-3.5572,-3.5595,-3.5634,-3.5611,-3.5655,-3.5684,-3.5675,-3.5728,-3.5743,-3.5774,-3.5834,-3.5861,-3.5848,-3.5949,-3.592,-3.5924,-3.5927,-3.5958,-3.5967,-3.5976,-3.5865,-3.5865,-3.5864,0,0,-3.5529,-3.5555,-3.5602,-3.5626,-3.5662,-3.5674,-3.5685,-3.5719,-3.5729,-3.5783,-3.5777,-3.5811,-3.5874,-3.5896,-3.5916,-3.5989,-3.598,-3.6,-3.6033,-3.6065,-3.6073,-3.608,-3.6104,-3.6112,-3.6006,-3.6006,-3.6006,0,-3.5554,-3.5616,-3.5626,-3.5671,-3.5694,-3.569,-3.5737,-3.5759,-3.5804,-3.5819,-3.5805,-3.5884,-3.5905,-3.5968,-3.5986,-3.6003,-3.6014,-3.5995,-3.6072,-3.6079,-3.6085,-3.6108,-3.6117,-3.6008,-3.6007,-3.6007,-3.6007,0,-3.5644,-3.5687,-3.5721,-3.5766,-3.5794,-3.5839,-3.5854,-3.588,-3.5882,-3.5894,-3.5948,-3.5973,-3.6013,-3.6029,-3.603,-3.6092,-3.6083,-3.607,-3.6043,-3.6096,-3.6118,-3.6127,-3.601,-3.601,-3.6009,-3.6009,0,0,-3.572,-3.5771,-3.5783,-3.5803,-3.5842,-3.5874,-3.5919,-3.5959,-3.598,-3.6011,-3.6047,-3.6101,-3.609,-3.6112,-3.6116,-3.6144,-3.6197,-3.6128,-3.6128,-3.6138,-3.6264,-3.6272,-3.6282,-3.6193,-3.6195,-3.6196,-3.6261,0,-3.5787,-3.5867,-3.5877,-3.5948,-3.5986,-3.5983,-3.6021,-3.6048,-3.6061,-3.6094,-3.6108,-3.6146,-3.6129,-3.6142,-3.617,-3.6185,-3.6222,-3.6181,-3.6224,-3.6225,-3.6214,-3.6294,-3.6302,-3.6362,-3.627,-3.6271,-3.6272,0,-3.5875,-3.591,-3.5984,-3.6017,-3.6034,-3.6068,-3.6105,-3.6138,-3.6168,-3.6175,-3.62,-3.62,-3.6244,-3.6217,-3.6276,-3.6248,-3.6266,-3.6276,-3.6279,-3.6281,-3.625,-3.6296,-3.6381,-3.6389,-3.6286,-3.6285,-3.6284,0,-3.592,-3.5986,-3.6038,-3.6056,-3.6096,-3.612,-3.6138,-3.6166,-3.6189,-3.6221,-3.6236,-3.6272,-3.6291,-3.6319,-3.6328,-3.6308,-3.6386,-3.636,-3.6391,-3.639,-3.6405,-3.6404,-3.6492,-3.6421,-3.6421,-3.6421,-3.6421,0,-3.5992,-3.6037,-3.6059,-3.6091,-3.6141,-3.6152,-3.62,-3.6216,-3.6242,-3.6275,-3.6275,-3.6306,-3.6317,-3.635,-3.6357,-3.6404,-3.6413,-3.6418,-3.6419,-3.6417,-3.6416,-3.6428,-3.6423,-3.6423,-3.6423,-3.6422,-3.6422,0,-3.605,-3.6067,-3.6124,-3.6158,-3.6167,-3.6202,-3.623,-3.626,-3.6274,-3.6316,-3.6327,-3.6347,-3.6385,-3.6398,-3.6443,-3.6448,-3.6502,-3.65,-3.6492,-3.6491,-3.6521,-3.6517,-3.6618,-3.6631,-3.6553,-3.6554,-3.6554,0,-3.6093,-3.6128,-3.6166,-3.6189,-3.6208,-3.6246,-3.627,-3.6282,-3.6306,-3.6343,-3.6368,-3.6406,-3.6437,-3.6498,-3.6516,-3.655,-3.6548,-3.6581,-3.6553,-3.655,-3.6546,-3.6543,-3.6545,-3.6586,-3.6587,-3.6587,-3.6588,0,-3.6168,-3.6174,-3.621,-3.6249,-3.6278,-3.6308,-3.6337,-3.6356,-3.6372,-3.6399,-3.6439,-3.6464,-3.6511,-3.6548,-3.6584,-3.6599,-3.6595,-3.6597,-3.6605,-3.6602,-3.6595,-3.6597,-3.6504,-3.6594,-3.6593,-3.6593,-3.6592,-3.6592,-3.6218,-3.6248,-3.628,-3.6319,-3.6343,-3.637,-3.64,-3.6417,-3.6451,-3.6492,-3.6496,-3.6539,-3.6566,-3.6614,-3.6632,-3.6664,-3.6654,-3.6667,-3.667,-3.6672,-3.6673,-3.6592,-3.6671,-3.667,-3.667,-3.667,-3.667,0,-3.629,-3.6311,-3.6347,-3.6389,-3.6419,-3.6415,-3.6447,-3.6472,-3.651,-3.6538,-3.6569,-3.6614,-3.665,-3.6671,-3.6706,-3.6728,-3.6726,-3.6736,-3.6733,-3.6737,-3.6681,-3.6669,-3.6736,-3.6736,-3.6736,-3.6736,-3.6736,-3.6736,-3.6332,-3.6382,-3.6392,-3.6454,-3.6473,-3.6516,-3.6534,-3.6559,-3.6581,-3.6631,-3.6662,-3.6676,-3.67,-3.6737,-3.677,-3.6775,-3.6787,-3.6797,-3.6801,-3.6748,-3.6741,-3.6734,-3.6723,-3.68,-3.68,-3.6853,-3.6854,-3.6854]}]]